When you browse on this site, cookies collect data to enhance your experience and personalize the content and advertising you see.
Visit our Privacy Policy to learn more. By continuing to use the site, you agree to this use of cookies and data.
  • Em Portugal
  • Lista de países
  • Para 7 dias
  • Temperatura da água
  • Mapas de satélite
  • Mapa do tempo
  • Widgets de tempo
  • user-avatar
    Iniciar Sessão

    Previsão horária em Praca

    Hoje, 17 Junho, Segunda-feira

    Tempo Temperatura Precipitação Vento Pressão Humidade
    00:00 +19°C° 0 mm 1 m/s 744 mmHg 97%
    01:00 +19°C° 0 mm 1 m/s 744 mmHg 97%
    02:00 +18°C° 0 mm 2 m/s 745 mmHg 98%
    03:00 +18°C° 0 mm 2 m/s 745 mmHg 98%
    04:00 +18°C° 0 mm 2 m/s 744 mmHg 97%
    05:00 +18°C° 0 mm 3 m/s 744 mmHg 97%
    06:00 +17°C° 0 mm 3 m/s 745 mmHg 95%
    07:00 +17°C° 0 mm 3 m/s 745 mmHg 93%
    08:00 +17°C° 0 mm 3 m/s 745 mmHg 91%
    09:00 +18°C° 0 mm 4 m/s 745 mmHg 88%
    10:00 +18°C° 0 mm 4 m/s 745 mmHg 85%
    11:00 +19°C° 0 mm 4 m/s 745 mmHg 82%
    12:00 +19°C° 0 mm 4 m/s 745 mmHg 82%
    13:00 +19°C° 0 mm 4 m/s 746 mmHg 81%
    14:00 +19°C° 0 mm 4 m/s 746 mmHg 81%
    15:00 +20°C° 0.1 mm 4 m/s 746 mmHg 81%
    16:00 +21°C° 0.1 mm 4 m/s 746 mmHg 81%
    17:00 +21°C° 0.1 mm 4 m/s 746 mmHg 81%
    18:00 +20°C° 0.1 mm 4 m/s 746 mmHg 83%
    19:00 +19°C° 0.1 mm 4 m/s 746 mmHg 86%
    20:00 +18°C° 0.1 mm 3 m/s 746 mmHg 88%
    21:00 +17°C° 0 mm 3 m/s 746 mmHg 90%
    22:00 +16°C° 0 mm 3 m/s 747 mmHg 92%
    23:00 +14°C° 0 mm 3 m/s 747 mmHg 94%

    Amanhã, 18 Junho, Terça-feira

    Tempo Temperatura Precipitação Vento Pressão Humidade
    00:00 +14°C° 0 mm 3 m/s 747 mmHg 94%
    01:00 +13°C° 0 mm 3 m/s 747 mmHg 95%
    02:00 +13°C° 0 mm 3 m/s 747 mmHg 95%
    03:00 +13°C° 0 mm 3 m/s 747 mmHg 94%
    04:00 +13°C° 0 mm 3 m/s 748 mmHg 94%
    05:00 +14°C° 0 mm 2 m/s 748 mmHg 93%
    06:00 +14°C° 0 mm 3 m/s 748 mmHg 86%
    07:00 +16°C° 0 mm 3 m/s 748 mmHg 79%
    08:00 +18°C° 0 mm 3 m/s 748 mmHg 72%
    09:00 +19°C° 0 mm 3 m/s 749 mmHg 66%
    10:00 +20°C° 0 mm 2 m/s 749 mmHg 61%
    11:00 +23°C° 0 mm 2 m/s 749 mmHg 55%
    12:00 +23°C° 0 mm 2 m/s 749 mmHg 54%
    13:00 +24°C° 0 mm 2 m/s 748 mmHg 52%
    14:00 +25°C° 0 mm 2 m/s 748 mmHg 51%
    15:00 +25°C° 0 mm 2 m/s 748 mmHg 54%
    16:00 +25°C° 0 mm 2 m/s 748 mmHg 57%
    17:00 +25°C° 0 mm 2 m/s 748 mmHg 61%
    18:00 +23°C° 0 mm 2 m/s 748 mmHg 67%
    19:00 +21°C° 0 mm 2 m/s 747 mmHg 72%
    20:00 +19°C° 0 mm 2 m/s 747 mmHg 78%
    21:00 +19°C° 0 mm 1 m/s 747 mmHg 80%
    22:00 +18°C° 0 mm 1 m/s 748 mmHg 83%
    23:00 +16°C° 0 mm 1 m/s 748 mmHg 85%

    Depois de amanhã, 19 Junho, Quarta-feira

    Tempo Temperatura Precipitação Vento Pressão Humidade
    00:00 +16°C° 0 mm 1 m/s 748 mmHg 86%
    01:00 +15°C° 0 mm 1 m/s 747 mmHg 87%
    02:00 +15°C° 0 mm 1 m/s 747 mmHg 88%
    03:00 +15°C° 0 mm 1 m/s 747 mmHg 88%
    04:00 +15°C° 0 mm 1 m/s 747 mmHg 88%
    05:00 +15°C° 0 mm 1 m/s 747 mmHg 88%
    06:00 +18°C° 0 mm 1 m/s 747 mmHg 84%
    07:00 +19°C° 0 mm 1 m/s 747 mmHg 80%
    08:00 +20°C° 0 mm 2 m/s 747 mmHg 76%
    09:00 +21°C° 0 mm 2 m/s 747 mmHg 71%
    10:00 +23°C° 0 mm 2 m/s 747 mmHg 65%
    11:00 +24°C° 0 mm 2 m/s 747 mmHg 60%
    12:00 +25°C° 0 mm 2 m/s 747 mmHg 58%
    13:00 +25°C° 0 mm 3 m/s 747 mmHg 57%
    14:00 +25°C° 0 mm 3 m/s 746 mmHg 55%
    15:00 +25°C° 0 mm 3 m/s 746 mmHg 60%
    16:00 +25°C° 0 mm 3 m/s 746 mmHg 64%
    17:00 +24°C° 0 mm 3 m/s 745 mmHg 69%
    18:00 +23°C° 0 mm 2 m/s 745 mmHg 72%
    19:00 +21°C° 0 mm 2 m/s 745 mmHg 75%
    20:00 +20°C° 0 mm 2 m/s 745 mmHg 78%
    21:00 +20°C° 0 mm 2 m/s 745 mmHg 76%
    22:00 +20°C° 0 mm 2 m/s 745 mmHg 75%
    23:00 +20°C° 0 mm 2 m/s 745 mmHg 73%

    20 Junho, Quinta-feira

    Tempo Temperatura Precipitação Vento Pressão Humidade
    00:00 +19°C° 0 mm 3 m/s 745 mmHg 74%
    01:00 +19°C° 0 mm 3 m/s 744 mmHg 75%
    02:00 +19°C° 0 mm 3 m/s 744 mmHg 76%
    03:00 +18°C° 0.1 mm 3 m/s 744 mmHg 80%
    04:00 +18°C° 0.1 mm 3 m/s 744 mmHg 84%
    05:00 +18°C° 0.1 mm 3 m/s 744 mmHg 87%
    06:00 +18°C° 0.5 mm 4 m/s 744 mmHg 89%
    07:00 +19°C° 0.5 mm 4 m/s 744 mmHg 92%
    08:00 +19°C° 0.5 mm 5 m/s 744 mmHg 94%
    09:00 +21°C° 0 mm 5 m/s 744 mmHg 89%
    10:00 +22°C° 0 mm 5 m/s 744 mmHg 85%
    11:00 +24°C° 0 mm 6 m/s 744 mmHg 80%
    12:00 +26°C° 0.4 mm 6 m/s 744 mmHg 78%
    13:00 +26°C° 0.4 mm 6 m/s 744 mmHg 77%
    14:00 +27°C° 0.4 mm 5 m/s 743 mmHg 75%
    15:00 +27°C° 0.5 mm 5 m/s 743 mmHg 77%
    16:00 +26°C° 0.5 mm 4 m/s 743 mmHg 78%
    17:00 +26°C° 0.5 mm 4 m/s 743 mmHg 80%
    18:00 +25°C° 0.3 mm 3 m/s 743 mmHg 83%
    19:00 +24°C° 0.3 mm 3 m/s 743 mmHg 87%
    20:00 +23°C° 0.3 mm 2 m/s 743 mmHg 91%
    21:00 +21°C° 0.1 mm 2 m/s 744 mmHg 92%
    22:00 +20°C° 0.1 mm 2 m/s 744 mmHg 93%
    23:00 +20°C° 0.1 mm 2 m/s 744 mmHg 94%

    21 Junho, Sexta-feira

    Tempo Temperatura Precipitação Vento Pressão Humidade
    00:00 +20°C° 0 mm 1 m/s 744 mmHg 94%
    01:00 +20°C° 0 mm 1 m/s 744 mmHg 94%
    02:00 +20°C° 0 mm 1 m/s 744 mmHg 94%
    03:00 +20°C° 0 mm 1 m/s 744 mmHg 95%
    04:00 +20°C° 0 mm 1 m/s 744 mmHg 95%
    05:00 +20°C° 0 mm 1 m/s 744 mmHg 95%
    06:00 +21°C° 0 mm 1 m/s 745 mmHg 92%
    07:00 +22°C° 0 mm 1 m/s 745 mmHg 89%
    08:00 +24°C° 0 mm 2 m/s 745 mmHg 86%
    09:00 +24°C° 1.3 mm 1 m/s 745 mmHg 84%
    10:00 +25°C° 1.3 mm 1 m/s 745 mmHg 82%
    11:00 +26°C° 1.3 mm 1 m/s 745 mmHg 80%
    12:00 +26°C° 1.1 mm 2 m/s 745 mmHg 78%
    13:00 +27°C° 1.1 mm 2 m/s 744 mmHg 76%
    14:00 +27°C° 1.1 mm 2 m/s 744 mmHg 74%
    15:00 +27°C° 0.2 mm 2 m/s 744 mmHg 74%
    16:00 +28°C° 0.2 mm 2 m/s 744 mmHg 74%
    17:00 +28°C° 0.2 mm 2 m/s 744 mmHg 75%
    18:00 +26°C° 1.3 mm 2 m/s 744 mmHg 80%
    19:00 +25°C° 1.3 mm 1 m/s 744 mmHg 84%
    20:00 +24°C° 1.3 mm 1 m/s 744 mmHg 89%
    21:00 +23°C° 0.6 mm 1 m/s 744 mmHg 90%
    22:00 +23°C° 0.6 mm 1 m/s 744 mmHg 91%
    23:00 +22°C° 0.6 mm 1 m/s 744 mmHg 92%

    22 Junho, Sábado

    Tempo Temperatura Precipitação Vento Pressão Humidade
    00:00 +21°C° 0.3 mm 2 m/s 744 mmHg 93%
    01:00 +20°C° 0.3 mm 2 m/s 744 mmHg 94%
    02:00 +20°C° 0.3 mm 2 m/s 744 mmHg 96%
    03:00 +20°C° 0 mm 2 m/s 744 mmHg 96%
    04:00 +20°C° 0 mm 2 m/s 744 mmHg 96%
    05:00 +20°C° 0 mm 2 m/s 744 mmHg 97%
    06:00 +21°C° 0 mm 2 m/s 744 mmHg 95%
    07:00 +23°C° 0 mm 2 m/s 744 mmHg 92%
    08:00 +25°C° 0 mm 3 m/s 744 mmHg 90%
    09:00 +26°C° 1.3 mm 3 m/s 744 mmHg 87%
    10:00 +27°C° 1.3 mm 3 m/s 744 mmHg 83%
    11:00 +28°C° 1.3 mm 3 m/s 744 mmHg 79%
    12:00 +28°C° 1.6 mm 4 m/s 744 mmHg 78%
    13:00 +28°C° 1.6 mm 4 m/s 744 mmHg 77%
    14:00 +28°C° 1.6 mm 5 m/s 744 mmHg 76%
    15:00 +28°C° 1 mm 4 m/s 743 mmHg 78%
    16:00 +28°C° 1 mm 4 m/s 743 mmHg 79%
    17:00 +27°C° 1 mm 3 m/s 743 mmHg 81%
    18:00 +26°C° 0.2 mm 3 m/s 743 mmHg 83%
    19:00 +25°C° 0.2 mm 3 m/s 743 mmHg 85%
    20:00 +25°C° 0.2 mm 3 m/s 743 mmHg 88%
    21:00 +22°C° 0 mm 3 m/s 743 mmHg 88%
    22:00 +21°C° 0 mm 3 m/s 743 mmHg 89%
    23:00 +20°C° 0 mm 3 m/s 743 mmHg 90%
    Mostrar mais